N12KBM KPDX-KDLS

Flight info

Callsign N12KBM
Flight time 0h 26m
Altitude VFR
Route VFR FF REQUESTED
Aircraft P28B/L-DOV/C

Departure

Time 2026-05-08 03:09
Airport Portland International Airport (KPDX)

Arrival

Time 2026-05-08 03:36
Airport Columbia Gorge Regional Airport (KDLS)
Time Latitude Longitude Altitude Speed Heading
2026-05-08 02:43 45.58362 -122.59953 27 ft 0 kts 118°
2026-05-08 02:58 45.58365 -122.59929 28 ft 1 kts 66°
2026-05-08 02:58 45.58394 -122.59922 29 ft 4 kts 293°
2026-05-08 02:58 45.58405 -122.59924 29 ft 0 kts 14°
2026-05-08 03:01 45.58424 -122.59913 29 ft 8 kts 31°
2026-05-08 03:02 45.58481 -122.59844 29 ft 13 kts 71°
2026-05-08 03:02 45.58441 -122.59708 30 ft 18 kts 120°
2026-05-08 03:02 45.58364 -122.59523 28 ft 22 kts 120°
2026-05-08 03:02 45.58307 -122.59354 29 ft 17 kts 111°
2026-05-08 03:03 45.58298 -122.59289 28 ft 0 kts 93°
2026-05-08 03:07 45.58307 -122.59271 28 ft 5 kts 37°
2026-05-08 03:07 45.58352 -122.59240 27 ft 11 kts 26°
2026-05-08 03:08 45.58395 -122.59271 27 ft 0 kts 300°
2026-05-08 03:08 45.58440 -122.59389 28 ft 39 kts 299°
2026-05-08 03:09 45.58649 -122.59926 39 ft 82 kts 299°
2026-05-08 03:09 45.58924 -122.60612 321 ft 73 kts 302°
2026-05-08 03:09 45.59209 -122.61288 448 ft 87 kts 302°
2026-05-08 03:09 45.59501 -122.62041 706 ft 84 kts 281°
2026-05-08 03:10 45.59246 -122.62825 854 ft 93 kts 231°
2026-05-08 03:10 45.58940 -122.63584 1149 ft 86 kts 247°
2026-05-08 03:10 45.58663 -122.64385 1272 ft 98 kts 244°
2026-05-08 03:10 45.58346 -122.65250 1498 ft 94 kts 245°
2026-05-08 03:11 45.58120 -122.66133 1692 ft 96 kts 253°
2026-05-08 03:11 45.57904 -122.67022 1933 ft 91 kts 252°
2026-05-08 03:11 45.57705 -122.67874 2151 ft 91 kts 251°
2026-05-08 03:11 45.57495 -122.68693 2400 ft 86 kts 252°
2026-05-08 03:12 45.57294 -122.69494 2618 ft 85 kts 252°
2026-05-08 03:12 45.57096 -122.70281 2839 ft 84 kts 252°
2026-05-08 03:12 45.56701 -122.70801 3036 ft 86 kts 175°
2026-05-08 03:12 45.56386 -122.70188 3256 ft 82 kts 93°
2026-05-08 03:13 45.56307 -122.69401 3473 ft 78 kts 94°
2026-05-08 03:13 45.56247 -122.68659 3677 ft 72 kts 95°
2026-05-08 03:13 45.56196 -122.67993 3847 ft 64 kts 92°
2026-05-08 03:13 45.56198 -122.67444 2973 ft 43 kts 94°
2026-05-08 03:14 45.55554 -122.67846 1642 ft 106 kts 219°
2026-05-08 03:14 45.54907 -122.68185 1800 ft 105 kts 191°
2026-05-08 03:14 45.54161 -122.68388 1809 ft 113 kts 192°
2026-05-08 03:14 45.53637 -122.68300 1832 ft 115 kts 152°
2026-05-08 03:15 45.53271 -122.67359 1921 ft 113 kts 97°
2026-05-08 03:15 45.53172 -122.66252 2029 ft 111 kts 98°
2026-05-08 03:15 45.53078 -122.65173 2150 ft 109 kts 98°
2026-05-08 03:15 45.52985 -122.64110 2271 ft 107 kts 98°
2026-05-08 03:16 45.52895 -122.63063 2394 ft 106 kts 98°
2026-05-08 03:16 45.52805 -122.62023 2516 ft 105 kts 98°
2026-05-08 03:16 45.52715 -122.60994 2639 ft 104 kts 98°
2026-05-08 03:16 45.52627 -122.59972 2762 ft 104 kts 98°
2026-05-08 03:17 45.52538 -122.58953 2885 ft 103 kts 98°
2026-05-08 03:17 45.52451 -122.57940 3009 ft 102 kts 97°
2026-05-08 03:17 45.52363 -122.56933 3132 ft 102 kts 97°
2026-05-08 03:17 45.52276 -122.55932 3256 ft 101 kts 97°
2026-05-08 03:18 45.52190 -122.54936 3379 ft 101 kts 97°
2026-05-08 03:18 45.52105 -122.53954 3541 ft 97 kts 97°
2026-05-08 03:18 45.52025 -122.53010 3742 ft 95 kts 98°
2026-05-08 03:18 45.51945 -122.52079 3938 ft 94 kts 98°
2026-05-08 03:19 45.51866 -122.51163 4132 ft 92 kts 98°
2026-05-08 03:19 45.51791 -122.50276 4324 ft 90 kts 98°
2026-05-08 03:19 45.51716 -122.49397 4517 ft 88 kts 98°
2026-05-08 03:19 45.51643 -122.48541 4707 ft 86 kts 98°
2026-05-08 03:20 45.51574 -122.47714 4895 ft 82 kts 98°
2026-05-08 03:20 45.51505 -122.46903 5025 ft 84 kts 97°
2026-05-08 03:20 45.51433 -122.46056 5179 ft 82 kts 98°
2026-05-08 03:20 45.51374 -122.45305 5248 ft 72 kts 96°
2026-05-08 03:21 45.51314 -122.44596 5371 ft 72 kts 97°
2026-05-08 03:21 45.51256 -122.43890 5487 ft 72 kts 98°
2026-05-08 03:21 45.51185 -122.43111 5524 ft 87 kts 98°
2026-05-08 03:21 45.51101 -122.42183 5557 ft 103 kts 98°
2026-05-08 03:22 45.51001 -122.41074 5489 ft 120 kts 98°
2026-05-08 03:22 45.50893 -122.39861 5480 ft 125 kts 98°
2026-05-08 03:22 45.50784 -122.38622 5479 ft 127 kts 98°
2026-05-08 03:22 45.50677 -122.37368 5474 ft 128 kts 97°
2026-05-08 03:23 45.50564 -122.36111 5478 ft 128 kts 98°
2026-05-08 03:23 45.50454 -122.34870 5509 ft 127 kts 97°
2026-05-08 03:23 45.50346 -122.33585 5354 ft 136 kts 98°
2026-05-08 03:23 45.50226 -122.32228 5287 ft 132 kts 98°
2026-05-08 03:24 45.50118 -122.30985 5420 ft 121 kts 97°
2026-05-08 03:24 45.50017 -122.29823 5559 ft 116 kts 98°
2026-05-08 03:24 45.49921 -122.28703 5699 ft 112 kts 98°
2026-05-08 03:24 45.49828 -122.27631 5841 ft 109 kts 98°
2026-05-08 03:25 45.49736 -122.26566 5986 ft 107 kts 97°
2026-05-08 03:25 45.49758 -122.25516 6127 ft 106 kts 78°
2026-05-08 03:25 45.49890 -122.24495 6273 ft 104 kts 79°
2026-05-08 03:25 45.50021 -122.23489 6419 ft 102 kts 79°
2026-05-08 03:26 45.50150 -122.22497 6565 ft 101 kts 79°
2026-05-08 03:26 45.50278 -122.21520 6711 ft 100 kts 79°
2026-05-08 03:26 45.51543 -122.11453 6844 ft 95 kts 78°
2026-05-08 03:26 45.53313 -122.09755 6948 ft 2859 kts 80°
2026-05-08 03:27 45.72194 -122.03029 6948 ft 3586 kts 80°
2026-05-08 03:27 45.71516 -121.97379 6948 ft 0 kts 80°
2026-05-08 03:27 45.63903 -121.97744 6614 ft 0 kts 80°
2026-05-08 03:27 45.63969 -121.97240 6707 ft 95 kts 80°
2026-05-08 03:28 45.64089 -121.96308 6845 ft 95 kts 79°
2026-05-08 03:28 45.63122 -122.04105 6863 ft 0 kts 80°
2026-05-08 03:28 45.64965 -121.93206 6973 ft 0 kts 79°
2026-05-08 03:28 45.66591 -121.80145 7076 ft 0 kts 80°
2026-05-08 03:29 45.68487 -121.64911 7139 ft 89 kts 79°
2026-05-08 03:29 45.68597 -121.64042 7279 ft 86 kts 78°
2026-05-08 03:29 45.68682 -121.63189 7347 ft 95 kts 85°
2026-05-08 03:29 45.68803 -121.62406 7227 ft 107 kts 75°
2026-05-08 03:30 45.68825 -121.59913 6726 ft 134 kts 98°
2026-05-08 03:30 45.67105 -121.50089 5844 ft 145 kts 107°
2026-05-08 03:31 45.63739 -121.35785 3986 ft 131 kts 127°
2026-05-08 03:31 45.63015 -121.33381 3233 ft 116 kts 99°
2026-05-08 03:32 45.62937 -121.32335 3048 ft 102 kts 97°
2026-05-08 03:32 45.62890 -121.31369 2872 ft 89 kts 94°
2026-05-08 03:32 45.62790 -121.30369 2396 ft 103 kts 99°
2026-05-08 03:32 45.62695 -121.29368 2113 ft 95 kts 97°
2026-05-08 03:33 45.62609 -121.28440 1855 ft 86 kts 99°
2026-05-08 03:33 45.62497 -121.27685 1705 ft 77 kts 109°
2026-05-08 03:33 45.62384 -121.26864 1320 ft 91 kts 97°
2026-05-08 03:33 45.62319 -121.26054 1269 ft 85 kts 94°
2026-05-08 03:34 45.62317 -121.25154 1317 ft 99 kts 94°
2026-05-08 03:34 45.62263 -121.24088 1243 ft 114 kts 96°
2026-05-08 03:34 45.62188 -121.22925 1018 ft 101 kts 98°
2026-05-08 03:34 45.62110 -121.22107 838 ft 73 kts 98°
2026-05-08 03:35 45.62055 -121.21382 789 ft 79 kts 90°
2026-05-08 03:35 45.62067 -121.20534 684 ft 86 kts 89°
2026-05-08 03:35 45.62067 -121.19842 545 ft 74 kts 91°
2026-05-08 03:35 45.62073 -121.19117 483 ft 73 kts 90°
2026-05-08 03:36 45.62075 -121.18452 354 ft 66 kts 89°
2026-05-08 03:36 45.62091 -121.17762 261 ft 78 kts 89°
2026-05-08 03:36 45.62096 -121.17343 223 ft 0 kts 89°
2026-05-08 03:36 45.62097 -121.17297 223 ft 23 kts 88°
2026-05-08 03:37 45.61996 -121.17159 226 ft 18 kts 191°
2026-05-08 03:37 45.61917 -121.17247 225 ft 4 kts 221°
2026-05-08 03:37 45.61916 -121.17248 225 ft 0 kts 220°